Simultaneous Nadir Overpasses (SNOs) Predictions

Prediction of SNOs between NOAA-20 and LANDSAT-9 Satellite Orbit:

Table of predicted SNOs for the next 14.0 days since TLE Epoch: 2/24/2024
Index Date (NOAA-20) Time (NOAA-20) Lat,Lon (NOAA-20) SZA (NOAA-20 ) Date (LANDSAT-9) Time (LANDSAT-9) Lat,Lon (LANDSAT-9) SZA (LANDSAT-9 ) Distance(km) Time Diff (sec)
1 02/24/2024 14:41:14 70.13, -44.00 79.67 02/24/2024 14:42:00 70.11, -44.05 79.64 2.93 46
2 02/24/2024 15:31:56 -70.06, 123.44 100.43 02/24/2024 15:31:29 -70.05, 123.50 100.43 2.47 27
3 02/27/2024 06:58:08 70.08, 71.85 78.62 02/27/2024 06:58:32 70.08, 71.77 78.61 3.06 24
4 02/27/2024 07:48:50 -70.00,-120.71 101.48 02/27/2024 07:48:01 -70.02,-120.68 101.46 2.12 49
5 02/29/2024 22:24:22 -70.37, 19.86 102.08 02/29/2024 22:25:34 -70.28, 20.29 102.20 18.97 72
6 02/29/2024 23:15:02 70.10,-172.40 77.62 02/29/2024 23:15:02 70.07,-172.37 77.59 3.33 0
7 03/01/2024 00:05:43 -69.96, -4.87 102.54 03/01/2024 00:04:32 -69.96, -4.89 102.53 0.93 71
8 03/03/2024 14:41:11 -70.13, 136.02 103.37 03/03/2024 14:42:06 -70.14, 135.95 103.37 2.90 55
9 03/03/2024 15:31:55 70.01, -56.49 76.50 03/03/2024 15:31:33 70.03, -56.56 76.52 3.15 22
10 03/03/2024 16:22:23 -69.18, 112.04 104.39 03/03/2024 16:21:15 -69.26, 110.03 104.22 79.54 68
11 03/06/2024 06:58:05 -70.10,-108.16 104.44 03/06/2024 06:58:36 -70.13,-108.19 104.42 3.23 31
12 03/06/2024 07:48:49 69.99, 59.32 75.43 03/06/2024 07:48:03 70.02, 59.30 75.47 3.22 46
13 03/08/2024 22:24:22 70.44,-160.23 74.89 03/08/2024 22:25:33 70.35,-159.62 74.76 24.63 71
14 03/08/2024 23:14:59 -70.08, 7.65 105.51 03/08/2024 23:15:06 -70.09, 7.63 105.51 1.20 7
15 03/09/2024 00:05:43 69.97, 175.13 74.37 03/09/2024 00:04:33 69.97, 175.11 74.38 0.46 70



Historial Predications of SNOs between NOAA-20 and LANDSAT-9
